Time,TemperatureF,DewpointF,PressureIn,WindDirection,WindDirectionDegrees,WindSpeedMPH,WindSpeedGustMPH,Humidity,HourlyPrecipIn,Conditions,Clouds,dailyrainin,SoftwareType,DateUTC
2013-02-07 00:10:00,18.3,0.1,30.13,NNE,22,8.3,-999.0,44,-99.99,,,0.00,Acu-Link.com,2013-02-07 05:10:00,
2013-02-07 00:25:00,17.4,-0.3,30.13,East,90,9.9,-999.0,45,-99.99,,,0.00,Acu-Link.com,2013-02-07 05:25:00,
2013-02-07 00:40:00,16.9,0.2,30.14,North,0,5.3,-999.0,47,-99.99,,,0.00,Acu-Link.com,2013-02-07 05:40:00,
2013-02-07 00:56:00,16.3,-0.4,30.13,NE,45,6.8,-999.0,47,-99.99,,,0.00,Acu-Link.com,2013-02-07 05:56:00,
2013-02-07 01:11:00,16.2,0.0,30.14,North,0,6.8,-999.0,48,-99.99,,,0.00,Acu-Link.com,2013-02-07 06:11:00,
2013-02-07 01:26:00,16.0,-1.1,30.16,NNE,22,5.8,-999.0,46,-99.99,,,0.00,Acu-Link.com,2013-02-07 06:26:00,
2013-02-07 01:42:00,15.6,-0.6,30.17,NNW,337,7.3,-999.0,48,-99.99,,,0.00,Acu-Link.com,2013-02-07 06:42:00,
2013-02-07 01:57:00,15.6,-0.6,30.18,North,0,14.5,-999.0,48,-99.99,,,0.00,Acu-Link.com,2013-02-07 06:57:00,
2013-02-07 02:12:00,15.4,-1.6,30.18,NE,45,7.8,-999.0,46,-99.99,,,0.00,Acu-Link.com,2013-02-07 07:12:00,
2013-02-07 02:27:00,15.3,-1.3,30.19,NNW,337,10.9,-999.0,47,-99.99,,,0.00,Acu-Link.com,2013-02-07 07:27:00,
2013-02-07 02:43:00,14.7,-2.3,30.18,NE,45,7.3,-999.0,46,-99.99,,,0.00,Acu-Link.com,2013-02-07 07:43:00,
2013-02-07 02:58:00,14.5,-2.5,30.18,NNE,22,7.8,-999.0,46,-99.99,,,0.00,Acu-Link.com,2013-02-07 07:58:00,
2013-02-07 03:13:00,14.2,-2.7,30.19,NNE,22,5.8,-999.0,46,-99.99,,,0.00,Acu-Link.com,2013-02-07 08:13:00,
2013-02-07 03:28:00,14.2,-3.2,30.20,West,270,4.2,-999.0,45,-99.99,,,0.00,Acu-Link.com,2013-02-07 08:28:00,
2013-02-07 03:44:00,14.2,-1.8,30.20,North,0,4.2,-999.0,48,-99.99,,,0.00,Acu-Link.com,2013-02-07 08:44:00,
2013-02-07 03:59:00,14.0,-2.0,30.21,NNE,22,7.3,-999.0,48,-99.99,,,0.00,Acu-Link.com,2013-02-07 08:59:00,
2013-02-07 04:14:00,14.0,-1.2,30.21,NE,45,5.3,-999.0,50,-99.99,,,0.00,Acu-Link.com,2013-02-07 09:14:00,
2013-02-07 04:30:00,14.0,-1.2,30.22,NE,45,4.7,-999.0,50,-99.99,,,0.00,Acu-Link.com,2013-02-07 09:30:00,
2013-02-07 04:45:00,13.8,-1.8,30.24,North,0,4.7,-999.0,49,-99.99,,,0.00,Acu-Link.com,2013-02-07 09:45:00,
2013-02-07 05:00:00,13.8,-1.8,30.25,NNE,22,4.7,-999.0,49,-99.99,,,0.00,Acu-Link.com,2013-02-07 10:00:00,
2013-02-07 05:16:00,13.6,-2.4,30.26,NE,45,5.8,-999.0,48,-99.99,,,0.00,Acu-Link.com,2013-02-07 10:16:00,
2013-02-07 05:31:00,13.6,-1.1,30.26,East,90,3.7,-999.0,51,-99.99,,,0.00,Acu-Link.com,2013-02-07 10:31:00,
2013-02-07 05:46:00,13.3,-1.8,30.27,NE,45,5.3,-999.0,50,-99.99,,,0.00,Acu-Link.com,2013-02-07 10:46:00,
2013-02-07 06:02:00,12.9,-2.2,30.28,NE,45,7.3,-999.0,50,-99.99,,,0.00,Acu-Link.com,2013-02-07 11:02:00,
2013-02-07 06:17:00,12.9,-1.4,30.28,East,90,3.7,-999.0,52,-99.99,,,0.00,Acu-Link.com,2013-02-07 11:17:00,
2013-02-07 06:32:00,12.4,-2.7,30.29,ENE,67,5.3,-999.0,50,-99.99,,,0.00,Acu-Link.com,2013-02-07 11:32:00,
2013-02-07 06:48:00,12.0,-2.6,30.30,NE,45,6.8,-999.0,51,-99.99,,,0.00,Acu-Link.com,2013-02-07 11:48:00,
2013-02-07 07:03:00,12.2,-2.4,30.31,East,90,8.3,-999.0,51,-99.99,,,0.00,Acu-Link.com,2013-02-07 12:03:00,
2013-02-07 07:18:00,11.8,-2.4,30.32,NE,45,6.8,-999.0,52,-99.99,,,0.00,Acu-Link.com,2013-02-07 12:18:00,
2013-02-07 07:33:00,11.3,-2.9,30.32,ENE,67,10.9,-999.0,52,-99.99,,,0.00,Acu-Link.com,2013-02-07 12:33:00,
2013-02-07 07:49:00,11.5,-2.7,30.34,NE,45,4.7,-999.0,52,-99.99,,,0.00,Acu-Link.com,2013-02-07 12:49:00,
2013-02-07 08:04:00,14.2,-1.8,30.35,NE,45,7.3,-999.0,48,-99.99,,,0.00,Acu-Link.com,2013-02-07 13:04:00,
2013-02-07 08:19:00,13.1,-3.3,30.36,ENE,67,4.7,-999.0,47,-99.99,,,0.00,Acu-Link.com,2013-02-07 13:19:00,
2013-02-07 08:34:00,12.7,-3.7,30.36,NE,45,8.3,-999.0,47,-99.99,,,0.00,Acu-Link.com,2013-02-07 13:34:00,
2013-02-07 08:50:00,12.9,-1.8,30.36,NE,45,8.9,-999.0,51,-99.99,,,0.00,Acu-Link.com,2013-02-07 13:50:00,
2013-02-07 09:05:00,14.0,-1.6,30.36,NNE,22,7.8,-999.0,49,-99.99,,,0.00,Acu-Link.com,2013-02-07 14:05:00,
2013-02-07 09:20:00,16.5,-1.1,30.36,NNE,22,11.4,-999.0,45,-99.99,,,0.00,Acu-Link.com,2013-02-07 14:20:00,
2013-02-07 09:35:00,17.8,-0.4,30.37,East,90,8.3,-999.0,44,-99.99,,,0.00,Acu-Link.com,2013-02-07 14:35:00,
2013-02-07 09:51:00,17.6,-1.5,30.39,NE,45,9.9,-999.0,42,-99.99,,,0.00,Acu-Link.com,2013-02-07 14:51:00,
2013-02-07 10:06:00,17.6,-1.0,30.39,North,0,6.8,-999.0,43,-99.99,,,0.00,Acu-Link.com,2013-02-07 15:06:00,
2013-02-07 10:21:00,16.5,-2.5,30.40,East,90,8.9,-999.0,42,-99.99,,,0.00,Acu-Link.com,2013-02-07 15:21:00,
2013-02-07 10:36:00,17.8,-1.4,30.38,NNW,337,10.9,-999.0,42,-99.99,,,0.00,Acu-Link.com,2013-02-07 15:36:00,
2013-02-07 10:51:00,20.1,-1.9,30.39,NNE,22,7.3,-999.0,37,-99.99,,,0.00,Acu-Link.com,2013-02-07 15:51:00,
2013-02-07 11:07:00,20.1,-3.1,30.39,NNW,337,7.8,-999.0,35,-99.99,,,0.00,Acu-Link.com,2013-02-07 16:07:00,
2013-02-07 11:22:00,20.7,-2.6,30.38,NE,45,2.7,-999.0,35,-99.99,,,0.00,Acu-Link.com,2013-02-07 16:22:00,
2013-02-07 11:37:00,21.0,-2.3,30.38,ENE,67,4.7,-999.0,35,-99.99,,,0.00,Acu-Link.com,2013-02-07 16:37:00,
2013-02-07 12:08:00,23.5,-2.0,30.36,NNW,337,6.3,-999.0,32,-99.99,,,0.00,Acu-Link.com,2013-02-07 17:08:00,
2013-02-07 12:24:00,22.5,-3.5,30.36,North,0,4.2,-999.0,31,-99.99,,,0.00,Acu-Link.com,2013-02-07 17:24:00,
2013-02-07 12:39:00,24.3,-0.6,30.36,NNW,337,5.8,-999.0,33,-99.99,,,0.00,Acu-Link.com,2013-02-07 17:39:00,
2013-02-07 12:55:00,23.9,-2.3,30.35,NE,45,3.7,-999.0,31,-99.99,,,0.00,Acu-Link.com,2013-02-07 17:55:00,
2013-02-07 13:10:00,23.2,-1.6,30.35,NE,45,8.9,-999.0,33,-99.99,,,0.00,Acu-Link.com,2013-02-07 18:10:00,
2013-02-07 13:25:00,22.6,-3.4,30.35,NE,45,5.3,-999.0,31,-99.99,,,0.00,Acu-Link.com,2013-02-07 18:25:00,
2013-02-07 13:40:00,23.5,-3.3,30.34,ENE,67,6.3,-999.0,30,-99.99,,,0.00,Acu-Link.com,2013-02-07 18:40:00,
2013-02-07 13:56:00,25.2,-1.1,30.35,NE,45,6.3,-999.0,31,-99.99,,,0.00,Acu-Link.com,2013-02-07 18:56:00,
2013-02-07 14:11:00,23.9,-3.7,30.33,NE,45,7.3,-999.0,29,-99.99,,,0.00,Acu-Link.com,2013-02-07 19:11:00,
2013-02-07 14:26:00,25.0,-2.7,30.33,NE,45,6.3,-999.0,29,-99.99,,,0.00,Acu-Link.com,2013-02-07 19:26:00,
2013-02-07 14:41:00,25.2,-4.8,30.34,ENE,67,3.2,-999.0,26,-99.99,,,0.00,Acu-Link.com,2013-02-07 19:41:00,
2013-02-07 14:57:00,27.0,-5.8,30.34,NNW,337,3.7,-999.0,23,-99.99,,,0.00,Acu-Link.com,2013-02-07 19:57:00,
2013-02-07 15:12:00,24.3,-7.2,30.33,NE,45,3.7,-999.0,24,-99.99,,,0.00,Acu-Link.com,2013-02-07 20:12:00,
2013-02-07 15:28:00,24.4,-5.5,30.33,ENE,67,3.7,-999.0,26,-99.99,,,0.00,Acu-Link.com,2013-02-07 20:28:00,
2013-02-07 15:43:00,24.3,-6.4,30.34,NNW,337,1.7,-999.0,25,-99.99,,,0.00,Acu-Link.com,2013-02-07 20:43:00,
2013-02-07 15:59:00,23.7,-3.9,30.33,NNE,22,4.2,-999.0,29,-99.99,,,0.00,Acu-Link.com,2013-02-07 20:59:00,
2013-02-07 16:14:00,21.9,-2.7,30.33,ESE,112,7.3,-999.0,33,-99.99,,,0.00,Acu-Link.com,2013-02-07 21:14:00,
2013-02-07 16:29:00,21.2,-5.3,30.34,ENE,67,4.7,-999.0,30,-99.99,,,0.00,Acu-Link.com,2013-02-07 21:29:00,
2013-02-07 16:44:00,20.1,-5.0,30.34,ENE,67,5.3,-999.0,32,-99.99,,,0.00,Acu-Link.com,2013-02-07 21:44:00,
2013-02-07 17:00:00,19.2,-5.8,30.35,ENE,67,4.2,-999.0,32,-99.99,,,0.00,Acu-Link.com,2013-02-07 22:00:00,
2013-02-07 17:15:00,18.9,-6.0,30.35,ENE,67,7.8,-999.0,32,-99.99,,,0.00,Acu-Link.com,2013-02-07 22:15:00,
2013-02-07 17:30:00,18.9,-3.0,30.36,NNE,22,7.3,-999.0,37,-99.99,,,0.00,Acu-Link.com,2013-02-07 22:30:00,
2013-02-07 17:46:00,18.3,-5.3,30.36,East,90,8.9,-999.0,34,-99.99,,,0.00,Acu-Link.com,2013-02-07 22:46:00,
2013-02-07 18:01:00,18.5,-2.8,30.37,NE,45,8.3,-999.0,38,-99.99,,,0.00,Acu-Link.com,2013-02-07 23:01:00,
2013-02-07 18:16:00,18.1,-3.2,30.37,ENE,67,9.4,-999.0,38,-99.99,,,0.00,Acu-Link.com,2013-02-07 23:16:00,
2013-02-07 18:31:00,18.3,-2.5,30.38,East,90,9.9,-999.0,39,-99.99,,,0.00,Acu-Link.com,2013-02-07 23:31:00,
2013-02-07 18:47:00,17.8,-5.2,30.39,East,90,7.3,-999.0,35,-99.99,,,0.00,Acu-Link.com,2013-02-07 23:47:00,
2013-02-07 19:02:00,17.8,-4.6,30.40,ENE,67,5.8,-999.0,36,-99.99,,,0.00,Acu-Link.com,2013-02-08 00:02:00,
2013-02-07 19:17:00,17.4,-5.5,30.39,East,90,9.4,-999.0,35,-99.99,,,0.00,Acu-Link.com,2013-02-08 00:17:00,
2013-02-07 19:32:00,17.8,-5.2,30.39,NE,45,6.8,-999.0,35,-99.99,,,0.00,Acu-Link.com,2013-02-08 00:32:00,
2013-02-07 19:47:00,17.8,-4.6,30.40,NE,45,8.3,-999.0,36,-99.99,,,0.00,Acu-Link.com,2013-02-08 00:47:00,
2013-02-07 20:03:00,17.4,-3.3,30.40,ENE,67,5.3,-999.0,39,-99.99,,,0.00,Acu-Link.com,2013-02-08 01:03:00,
2013-02-07 20:18:00,17.1,-3.5,30.42,ENE,67,3.7,-999.0,39,-99.99,,,0.00,Acu-Link.com,2013-02-08 01:18:00,
2013-02-07 20:34:00,16.7,-1.4,30.41,NE,45,4.2,-999.0,44,-99.99,,,0.00,Acu-Link.com,2013-02-08 01:34:00,
2013-02-07 20:49:00,17.2,-1.9,30.42,NE,45,8.3,-999.0,42,-99.99,,,0.00,Acu-Link.com,2013-02-08 01:49:00,
2013-02-07 21:04:00,16.5,-3.0,30.42,ENE,67,10.4,-999.0,41,-99.99,,,0.00,Acu-Link.com,2013-02-08 02:04:00,
2013-02-07 21:20:00,16.9,-0.3,30.41,East,90,7.8,-999.0,46,-99.99,,,0.00,Acu-Link.com,2013-02-08 02:20:00,
2013-02-07 21:35:00,16.5,-1.6,30.41,East,90,6.3,-999.0,44,-99.99,,,0.00,Acu-Link.com,2013-02-08 02:35:00,
2013-02-07 21:50:00,16.5,-0.2,30.41,ENE,67,9.4,-999.0,47,-99.99,,,0.00,Acu-Link.com,2013-02-08 02:50:00,
2013-02-07 22:06:00,16.0,-1.1,30.42,NNE,22,9.9,-999.0,46,-99.99,,,0.00,Acu-Link.com,2013-02-08 03:06:00,
2013-02-07 22:21:00,16.0,1.1,30.42,NE,45,5.3,-999.0,51,-99.99,,,0.00,Acu-Link.com,2013-02-08 03:21:00,
2013-02-07 22:36:00,16.0,0.3,30.42,NE,45,3.7,-999.0,49,-99.99,,,0.00,Acu-Link.com,2013-02-08 03:36:00,
2013-02-07 22:51:00,15.8,-0.4,30.40,ENE,67,8.9,-999.0,48,-99.99,,,0.00,Acu-Link.com,2013-02-08 03:51:00,
2013-02-07 23:06:00,15.8,-0.4,30.39,NE,45,6.8,-999.0,48,-99.99,,,0.00,Acu-Link.com,2013-02-08 04:06:00,
2013-02-07 23:22:00,15.4,-0.3,30.40,ENE,67,4.7,-999.0,49,-99.99,,,0.00,Acu-Link.com,2013-02-08 04:22:00,
2013-02-07 23:37:00,15.3,-2.2,30.40,NE,45,8.3,-999.0,45,-99.99,,,0.00,Acu-Link.com,2013-02-08 04:37:00,
2013-02-07 23:52:00,15.6,-1.5,30.39,East,90,7.3,-999.0,46,-99.99,,,0.00,Acu-Link.com,2013-02-08 04:52:00,